Regional Weather Roundup
Issued by NWS

Home | Current Version | Previous Version | Graphics & Text | Print | Product List | Glossary On
Versions: 1 2 3 4 5 6 7 8 9 10 11 12 13 14 15 16 17 18 19 20 21 22 23 24 25 26 27 28 29 30 31 32 33 34 35 36 37 38 39 40 41 42 43 44 45 46 47 48 49 50
000
ASUS43 KLMK 240002
RWRKY
KENTUCKY REGIONAL WEATHER ROUNDUP
NATIONAL WEATHER SERVICE LOUISVILLE KY
700 PM EST THU FEB 23 2017

NOTE "FAIR" INDICATES FEW OR NO CLOUDS BELOW 12,000 FEET
WITH NO SIGNIFICANT WEATHER AND/OR OBSTRUCTIONS TO VISIBILITY.

KYZ001>023-026-027-061>063-070>075-240100-
WESTERN AND SOUTH CENTRAL KENTUCKY

CITY           SKY/WX    TMP DP  RH WIND       PRES   REMARKS
PADUCAH        PTCLDY    69  54  58 S8        29.66R
HENDERSON      PTCLDY    64  52  63 S9        29.68R
OWENSBORO      PTCLDY    66  56  70 S9        29.70S
HOPKINSVILLE   CLEAR     71  54  55 S7        29.70S
BOWLING GREEN  PTCLDY    69  54  58 S8        29.74S
GLASGOW        NOT AVBL
$$

KYZ024-025-028>034-038-045-046-053-240100-
NORTH CENTRAL KENTUCKY

CITY           SKY/WX    TMP DP  RH WIND       PRES   REMARKS
LOUISVILLE/SDF CLOUDY    69  54  58 SE7       29.74R
LOUISVILLE/LOU CLOUDY    69  55  60 SE3       29.75R
FORT KNOX      MOCLDY    67  54  64 SE6       29.73R
$$

KYZ035>037-039>044-047>052-055>060-089>105-240100-
NORTHEAST KENTUCKY

CITY           SKY/WX    TMP DP  RH WIND       PRES   REMARKS
LEXINGTON      PTCLDY    65  54  67 E6        29.79S
COVINGTON      CLOUDY    63  56  78 S7        29.77S
FRANKFORT      MOCLDY    65  55  70 SE3       29.77S
$$

KYZ054-064>069-076>088-106>120-240100-
SOUTHEAST KENTUCKY

CITY           SKY/WX    TMP DP  RH WIND       PRES   REMARKS
JACKSON        CLEAR     66  52  60 SE3       29.83R
LONDON         MOCLDY    65  51  60 E3        29.81R
SOMERSET       PTCLDY    64  50  59 CALM      29.81R
MIDDLESBORO    CLEAR     61  53  73 CALM      29.84R
MONTICELLO     PTCLDY    64  53  67 VRB6      29.81R
$$





USA.gov is the U.S. government's official web portal to all federal, state and local government web resources and services.